Regional Weather Roundup
Issued by NWS Sterling, VA

Home | Current Version | Previous Version | Text Only | Print | Product List | Glossary On
Versions: 1 2 3 4 5 6 7 8 9 10 11 12 13 14 15 16 17 18 19 20 21 22 23 24 25 26 27 28 29 30 31 32 33 34 35 36 37 38 39 40 41 42 43 44 45 46 47 48 49 50
000
ASUS41 KLWX 300710
RWRLWX

REGIONAL WEATHER ROUNDUP
NATIONAL WEATHER SERVICE BALTIMORE MD/WASHINGTON DC
300 AM EDT MON MAR 30 2015

Note: "FAIR" indicates few or no clouds below 12,000 feet
with no significant weather and/or obstructions to visibility.
 TC=TEMPERATURE CELSIUS

 * =Non NWS site. Station does not report precipitation (e.g. rain,
    snow, etc.), thunder, or fog.

DCZ001-MDZ009-015-VAZ040>042-051-053>054-300800-
WASHINGTON METRO

CITY           SKY/WX    TMP DP  RH WIND       PRES   REMARKS
WASHINGTON NAT CLOUDY    45  25  45 S14       30.04F
DULLES         CLOUDY    42  14  32 S8        30.02F
ANDREWS AFB    CLOUDY    39  25  58 S12       30.01F
FT BELVOIR     CLOUDY    43  14  30 S7        30.02F
QUANTICO       CLOUDY    45  20  36 SW15      30.05F
COLLEGE PARK*  CLOUDY    41  28  60 CALM      30.03F
LEESBURG*      CLOUDY    43  19  39 S5        30.03S
MANASSAS*      CLOUDY    45  14  29 S7        30.02F
GAITHERSBURG*  CLOUDY    37  27  65 SE5       30.05F

$$

MDZ006>007-011-014-300800-
BALTIMORE METRO

CITY           SKY/WX    TMP DP  RH WIND       PRES   REMARKS
BWI AIRPORT    CLOUDY    37  25  61 CALM      30.03F
MARTIN STATE   FLURRIES  39  27  60 SE5       30.07F
ANNAPOLIS      CLOUDY    39  24  55 S9        30.05F

$$

MDZ012-015-019>023-300800-
MARYLAND EASTERN SHORE

CITY           SKY/WX    TMP DP  RH WIND       PRES   REMARKS
OCEAN CITY     CLOUDY    39  29  67 SW14      30.13F
SALISBURY      CLOUDY    35  24  64 S6        30.12F
BAY BRIDGE AP* LGT RAIN  39  25  56 S10G21    30.07F
CAMBRIDGE*     CLOUDY    41  30  65 S8        30.09F
EASTON*        CLOUDY    42  31  64 SW12      30.13F

$$

MDZ017>025-300800-
SOUTHERN MARYLAND

CITY           SKY/WX    TMP DP  RH WIND       PRES   REMARKS
PATUXENT RIVER CLOUDY    41  19  41 S10G18    30.08F
ST INIGOES     CLOUDY    41  20  43 S8        30.08F
LEONARDTOWN*   NOT AVBL

$$

MDZ003>005-300800-
NORTH CENTRAL MARYLAND

CITY           SKY/WX    TMP DP  RH WIND       PRES   REMARKS
FREDERICK*     CLOUDY    39  27  60 SE5       30.05F
HAGERSTOWN APT CLOUDY    42  11  28 S7        29.99F
WESTMINSTER*   CLOUDY    36  30  80 SE7       30.00F

$$

MDZ501>502-300800-
WESTERN MARYLAND

CITY           SKY/WX    TMP DP  RH WIND       PRES   REMARKS
OAKLAND*       CLOUDY    32 N/A N/A SW12G21   29.88F WCI  23
CUMBERLAND*    CLOUDY    37  34  87 S5        30.01F

$$

VAZ025>031-300800-
SHENANDOAH VALLEY

CITY           SKY/WX    TMP DP  RH WIND       PRES   REMARKS
WINCHESTER*    CLOUDY    41   7  24 CALM      30.00R
FRONT ROYAL*   CLOUDY    45  12  26 S5        29.97F
LURAY*         CLOUDY    46  18  31 S10G18    29.99F
NEW MARKET*    CLOUDY    43  16  34 SW3       29.99F
STAUNTON*      CLOUDY    43  15  31 S5        30.02R
WAYNESBORO*    CLOUDY    44  13  29 W3        30.00R

$$

WVZ021-048>050-054>055-300800-
EASTERN WEST VIRGINIA PANHANDLE

CITY           SKY/WX    TMP DP  RH WIND       PRES   REMARKS
MARTINSBURG    CLOUDY    42  15  33 CALM      30.00S
PETERSBURG*    LGT RAIN  45  30  55 S5        29.97F

$$

VAZ036>039-050-300800-
CENTRAL FOOTHILLS

CITY           SKY/WX    TMP DP  RH WIND       PRES   REMARKS
CHARLOTTESVILL CLOUDY    43  14  31 S6        30.03F
CULPEPER*      CLOUDY    45  16  31 SW6       30.03F
ORANGE*        CLOUDY    45  14  29 S8        30.05S
GORDONSVILLE*  CLOUDY    43  15  31 SW7       30.03S
WARRENTON*     CLOUDY    45  22  40 SW8       30.02F

$$

VAZ055>057-300800-
NORTH AND CENTRAL PIEDMONT

CITY           SKY/WX    TMP DP  RH WIND       PRES   REMARKS
FREDERICKSBRG* CLOUDY    46  14  28 S9        30.04F
STAFFORD*      CLOUDY    42  10  27 S6        30.07F

$$

NCZ024-NYZ072-PAZ021-071-VAZ022-071-300800-
OTHER REGIONAL OBSERVATIONS

CITY           SKY/WX    TMP DP  RH WIND       PRES   REMARKS
NEW YORK CITY  MOCLDY    39  11  31 VRB5G17   30.06F
PHILADELPHIA   CLOUDY    38  16  40 S8        30.08F
PITTSBURGH     CLOUDY    40  33  76 S17G24    29.85F
ROANOKE        CLOUDY    45  16  31 SE3       30.04F
RICHMOND       CLOUDY    42  17  36 S12       30.10F
RALEIGH        MOCLDY    42  17  36 SW14      30.15F

$$

ANZ530>537-300800-
MARINE OBSERVATIONS

STATION/POSITION TIME  TEMP    WIND        PRES
                       AIR SEA DIR/SP/G
                 (UTC) (F)     (DEG/KT/KT) (MB)
THOMAS PT LIGHT  0700                        N/A
BALT KEY BRIDGE  0600   41     190/  9/ 11 1018.6F
COVE POINT       0600   40     200/ 17/ 19 1019.7F
LEWISETTA        0600   41 43              1019.9F
SOLOMONS ISLAND  0618      42                N/A
PINEY POINT      0600          200/ 11/ 13   N/A

$$




USA.gov is the U.S. government's official web portal to all federal, state and local government web resources and services.